星链-32612 (STARLINK-32612)

导读

STARLINK-32612是美国SpaceX星链计划中的一颗低轨互联网通信卫星,于北京时间2024年11月14日(发射当地时间11月13日),从美国佛罗里达州空军东部试验场发射升空。该卫星NORAD编号为61972,COSPAR编号为2024-210P,目前处于正常运行状态。其轨道倾角43.001°,平均轨道高度约490.1千米,轨道周期94.265分钟,属于星链星座的组网卫星,为全球提供高速互联网服务。

基本信息
目录编号:
61972
目录名称:
STARLINK-32612
国际标识:
2024-210P
轨道中心:
EARTH
卫星名称:
星链-32612
卫星全名:
星链-32612 (STARLINK-32612)
卫星状态:
在轨 (已飞行659 天)
发射日期:
2024-11-14 UTC
国别 :
美国 (US)
星等 :
--
轨道信息
数据来源 国际轨道数据
星历时间: 2026-09-04T15:19:16+0800
12小时前
查看轨道信息
半长轴: 6861.213km
偏心率: 0.0002321
轨道倾角: 43.003°
近地点辐角 276.517°
升交点赤经 251.374°
平近点角 83.542°
近地点: 481.483km
远地点: 484.669km
周期: 94.267分钟
每日圈数: 15.275712
详细信息
固有亮度:
5
最大亮度:
2.5
卫星平台:
Starlink V1.0
覆盖范围:
全球
运营商:
太空探索技术公司
运营商所在国:
美国
制造商(研发单位):
太空探索技术公司
制造商所在国:
美国
使用方式:
暂无
卫星简介
Starlink 计划是 SpaceX 推出的全球卫星互联网项目,通过发射低轨道卫星,为全球尤其是偏远地区提供高速、低延迟的互联网服务。自 2019 年起,Starlink 已部署数千颗卫星,旨在缩小全球数字鸿沟,推动互联网普及。该项目还为军事、航空等行业提供通信支持,带来广泛经济效益。
2D轨道图
3D轨道图
轨道高度分析图
轨道倾角分析图
轨道综合分析图
查看轨道综合分析图
交会数据列表
事件ID 空间交会对象 最接近时刻(TCA) 交会距离 交会风险概率(CRP) 交会风险指数(CRI) 操作
CDM_260906-081906-197206-729421
2026-09-06T
08:19:05+0000
0.506 km
远距离
1.663428E-4 高风险 0.79